Terminal Aerodrome Forecast
Issued by NWS Blacksburg, VA

Current Version | Previous Version | Graphics & Text | Print | Product List | Glossary On
Versions: 1 2 3 4 5 6 7 8 9 10 11 12 13 14 15 16 17 18 19 20
000
FTUS41 KRNK 130526
TAFBLF
TAF
KBLF 130526Z 1306/1406 17012G22KT P6SM SCT100
     FM131100 21007KT P6SM SKC
     FM131400 22009KT P6SM SCT040
     FM131700 22013G23KT P6SM SCT050
     FM140000 19012KT P6SM BKN250=

USA.gov is the U.S. government's official web portal to all federal, state and local government web resources and services.